Dewpoint
29 29 31 40 52 57 56 56 57 57 57 58 58 57 55 55 53 52 49 46 43 43 43 42 43 46 47 48 48 46 44 43 42 43 43 43 43 44 45 49 52 51 50
28 29 30 39 47 54 57 57 58 57 57 58 57 57 56 55 52 52 49 46 44 44 43 42 42 46 46 48 47 45 43 43 43 40 40 39 39 42 43 46 49 50 50
28 29 29 33 43 50 56 57 59 58 58 59 58 57 57 54 51 50 48 49 46 47 45 43 41 45 47 48 48 46 46 43 43 42 40 38 36 39 41 43 44 47 49
28 31 31 33 43 49 55 57 58 60 59 59 57 54 52 50 50 49 49 49 48 48 47 45 42 43 47 48 48 47 46 44 42 43 43 45 41 37 36 39 43 44 42
28 30 32 34 45 53 58 59 58 59 59 58 55 53 53 51 49 48 47 47 47 48 48 47 45 43 46 47 48 47 46 44 43 43 43 43 43 40 37 35 37 44 43
30 30 32 41 50 56 59 58 57 56 56 55 54 53 52 51 48 48 46 46 47 48 48 47 46 44 44 47 48 47 47 45 45 44 43 43 42 40 39 37 37 39 44
38 37 34 46 50 55 59 58 57 56 54 54 53 53 53 52 50 48 46 45 46 47 48 47 46 45 45 44 47 48 50 49 47 45 44 43 43 43 39 38 37 37 41
38 40 42 48 48 53 57 59 58 57 55 55 55 55 54 53 52 50 48 45 46 47 47 47 46 45 44 44 44 48 50 50 50 47 46 44 43 43 41 39 38 37 40
35 37 39 40 41 43 47 53 58 57 57 56 56 55 55 53 52 51 51 51 48 47 47 47 46 45 44 44 44 45 47 47 48 48 47 45 44 43 43 41 40 39 37
32 33 34 36 37 38 40 43 48 55 57 56 56 55 55 55 55 54 53 52 52 50 47 47 46 45 45 44 43 43 43 44 47 48 47 46 46 44 44 43 41 41 39
29 31 32 33 35 36 37 39 41 44 49 56 56 56 55 55 55 55 54 53 54 53 51 49 48 46 44 44 43 43 43 43 43 45 46 46 45 45 44 44 42 41 40
28 29 30 32 34 36 37 38 40 41 43 48 56 56 56 56 55 55 54 55 54 53 52 52 50 49 48 45 44 43 42 42 42 42 43 44 43 44 43 42 42 42 40
25 26 28 29 32 35 37 39 41 41 43 46 53 56 55 56 56 56 55 55 54 53 52 52 50 50 49 48 46 44 43 43 42 42 42 42 41 40 40 40 40 41 35
23 25 26 27 29 31 32 37 42 43 44 46 49 50 52 55 54 55 54 53 52 52 52 52 51 51 49 48 48 47 46 46 45 44 42 40 39 37 37 36 37 35 35
21 23 24 25 27 28 28 31 39 41 43 45 46 48 49 50 54 54 53 53 52 52 50 50 49 49 49 48 48 47 47 46 43 42 41 38 37 38 36 33 32 34 33
19 20 22 24 26 27 27 27 31 41 40 41 42 45 46 48 50 52 53 52 52 51 51 50 48 47 47 47 47 47 46 44 42 40 38 37 37 37 36 34 36 35 33
19 20 21 23 24 27 28 27 28 38 39 39 39 41 43 45 46 48 50 50 50 51 50 49 48 47 47 46 46 45 44 43 41 40 38 36 33 35 34 36 37 35 34
22 22 23 23 25 27 29 29 31 38 37 38 37 38 40 42 44 46 47 48 49 50 50 49 48 48 48 46 46 46 44 42 41 38 37 35 35 36 35 33 32 32 31
22 24 25 26 27 29 29 31 31 33 34 35 36 37 38 40 42 43 44 45 46 46 47 47 48 47 46 46 46 45 42 40 39 38 37 35 35 38 36 32 30 30 31
23 23 25 26 26 28 28 31 31 31 30 31 34 36 37 38 39 41 43 44 44 44 44 44 45 46 45 46 46 43 39 37 37 37 37 38 36 38 35 30 30 30 31
20 24 24 24 25 24 26 27 28 28 29 30 32 34 34 36 37 39 40 41 42 42 42 42 43 43 44 45 44 42 38 36 35 35 35 35 39 37 35 33 32 33 34
16 17 18 19 20 22 23 24 25 26 27 28 30 31 32 34 35 36 39 39 39 38 38 39 40 42 44 45 43 41 39 38 35 34 35 37 39 37 35 35 38 38 33
14 16 16 17 18 20 21 22 23 25 26 27 28 29 31 33 35 35 36 37 38 38 38 37 37 37 40 43 43 41 39 39 35 35 36 39 39 38 38 38 37 33 28
14 15 16 17 17 19 20 21 23 25 26 26 28 29 31 32 34 35 35 35 36 37 36 36 36 37 37 39 41 40 39 38 36 37 39 39 38 37 36 35 32 27 27
13 15 15 16 17 19 20 22 23 24 26 27 29 30 29 31 32 34 34 35 36 35 35 36 36 35 36 38 39 38 37 35 36 37 36 35 33 33 34 31 28 27 26
13 14 15 16 18 20 21 24 25 25 25 26 26 28 28 29 29 30 32 35 36 37 37 37 36 36 38 39 39 39 38 38 39 35 32 32 31 31 30 29 27 25 25
Lifted_Index
10 10 9 8 6 5 4 4 3 4 4 4 3 2 0 1 4 6 7 9 11 11 11 12 12 11 10 10 10 10 10 11 12 12 12 12 12 12 12 10 8 7 7
9 10 9 8 7 5 4 3 3 3 4 3 3 2 1 1 4 6 8 9 10 11 11 12 12 11 10 10 10 10 10 11 11 12 11 11 11 12 12 11 9 8 7
8 9 9 8 7 5 4 3 2 3 3 3 3 2 1 1 3 6 8 8 9 10 10 11 11 11 10 10 10 10 10 11 11 11 11 10 10 11 12 12 11 10 9
8 8 8 8 6 5 4 3 2 3 3 3 3 2 1 0 2 6 8 8 9 9 10 10 11 11 10 10 9 9 10 10 11 11 11 11 10 10 11 12 11 11 11
7 8 8 7 5 3 3 3 2 3 3 3 3 2 0 -1 2 6 8 9 9 9 9 10 10 10 10 10 9 9 10 10 10 11 11 11 10 10 11 11 11 11 11
7 7 7 6 3 2 2 2 2 3 3 3 3 2 0 -0 2 5 8 9 9 9 9 9 9 10 10 10 10 9 9 10 10 10 11 10 10 10 10 10 10 11 11
7 7 6 5 3 2 2 2 2 3 3 3 2 2 1 1 2 5 7 8 9 9 9 9 9 9 9 10 10 9 9 9 9 10 10 10 10 10 10 10 10 10 11
6 7 6 5 3 1 2 2 2 2 2 2 2 2 2 2 3 4 5 6 7 8 8 9 9 9 9 9 10 9 9 9 9 9 9 10 9 9 9 9 9 10 10
6 6 6 5 2 1 1 2 2 2 2 2 2 2 2 2 2 2 2 3 4 5 6 7 8 9 9 9 9 9 9 9 9 9 9 9 9 9 9 9 9 9 9
5 6 6 4 2 1 2 2 2 2 3 3 2 2 2 2 2 2 1 1 2 3 3 4 6 8 9 9 9 9 9 9 9 9 9 9 9 8 8 8 8 8 9
5 5 5 4 3 2 2 2 2 2 2 3 3 2 3 3 3 2 2 2 2 2 2 3 4 5 7 8 8 8 8 9 9 9 9 9 9 9 8 8 8 8 8
5 5 5 4 4 3 3 3 3 3 2 2 2 3 3 3 3 3 3 3 3 2 2 3 3 3 4 6 7 7 8 8 9 9 10 10 10 9 9 9 9 9 9
6 6 5 5 5 5 5 5 4 4 3 3 2 2 2 3 3 3 3 3 3 3 3 3 3 3 3 4 5 5 6 7 8 9 9 10 9 9 9 10 10 10 10
6 6 6 6 6 6 7 7 6 6 6 5 4 3 2 2 2 3 2 2 3 3 3 3 4 3 3 3 4 4 4 5 6 7 8 8 8 9 10 10 10 11 11
6 6 7 7 7 7 7 7 7 8 8 7 7 6 4 3 3 3 3 2 3 3 3 3 4 4 3 3 3 3 3 4 4 5 6 7 9 10 10 10 10 10 11
6 6 7 7 7 7 7 7 7 7 8 8 8 8 7 5 4 4 3 3 3 3 3 3 3 3 4 3 3 3 3 3 3 4 6 8 9 10 10 10 10 10 11
7 7 7 7 8 8 7 7 7 7 7 7 8 8 8 7 6 5 4 3 3 3 4 4 4 4 4 4 3 3 3 4 4 5 6 8 9 9 9 9 10 11 11
8 8 8 9 9 8 8 7 7 7 7 7 7 8 8 8 7 6 5 4 4 4 5 5 4 4 4 4 4 4 4 4 5 6 7 7 8 9 9 9 10 10 11
11 10 10 11 10 9 9 8 7 7 6 6 7 8 8 8 8 7 6 6 5 5 5 5 5 5 5 4 4 4 4 4 5 6 7 8 8 8 9 9 9 9 9
13 12 12 12 12 10 9 8 7 7 7 7 8 8 9 8 8 8 7 7 6 5 5 5 5 5 5 5 4 4 4 4 5 6 7 8 8 8 9 9 9 9 9
14 14 14 13 12 12 10 9 9 9 9 9 9 9 9 9 8 8 7 7 6 6 5 5 5 5 5 5 5 4 4 5 5 5 6 7 8 9 9 9 9 10 10
15 15 15 14 14 13 12 11 11 11 11 10 10 9 9 9 8 8 7 7 6 6 5 5 5 5 5 5 5 5 5 5 5 5 6 8 9 10 10 10 11 12 12
15 16 16 15 15 15 14 13 13 13 12 11 10 10 10 9 9 8 7 7 6 5 5 5 5 4 4 5 5 5 6 6 6 7 7 8 9 10 11 12 13 14 14
15 15 15 15 15 16 15 15 14 14 12 11 10 10 10 9 9 8 7 7 6 5 5 5 4 4 4 5 5 6 6 7 7 8 9 9 10 10 11 13 14 15 15
14 14 14 15 15 16 16 16 15 14 13 12 11 10 10 9 9 8 8 7 7 6 6 5 5 5 5 6 6 7 7 7 8 9 9 9 9 10 11 12 14 16 16
13 13 14 14 15 15 16 16 15 15 13 12 11 10 10 9 9 8 8 8 7 7 7 6 6 6 6 7 8 8 8 8 8 9 9 8 9 9 10 12 14 15 16